Location: Koussan�
(15.2012°N, 12.5548°W)
Time: 15:32:42
(UTC+00:00)

Daily predictions for brighter satellites

Satellite Brightness Start Highest point End
(mag) Time Altitude Azimuth Time Altitude Azimuth Time Altitude Azimuth
CZ-4B R/B 3.5 18:36:26 10° S 18:42:05 82° WSW 18:47:44 10° NNW
ASC 2 Rocket 4.1 18:39:07 10° W 18:43:28 46° N 18:49:27 10° ENE
Cosmos 1939 Rocket 4.0 18:41:31 10° SE 18:44:45 23° ENE 18:47:56 10° NNE
Cosmos 407 Rocket 3.9 18:40:31 10° NNW 18:45:48 75° WSW 18:51:06 10° S
NOAA 12 4.1 18:40:45 10° SSE 18:46:00 89° ENE 18:51:16 10° NNW
SL-27 R/B 3.0 18:43:22 10° N 18:46:33 33° ENE 18:49:40 10° SE
Cosmos 292 Rocket 4.3 18:43:11 10° S 18:47:34 38° E 18:51:58 10° NNE
Cosmos 1908 4.4 18:47:25 10° SSW 18:51:04 48° W 18:54:46 10° N
CZ-4 R/B 3.0 18:52:07 10° ESE 18:54:19 14° ENE 18:56:29 10° NE
Cosmos 1602 Rocket 3.6 18:51:38 10° N 18:56:03 61° E 19:00:25 10° SSE
Cosmos 1626 Rocket 3.6 18:51:50 10° N 18:56:14 88° W 19:00:36 10° S
Okean O Rocket 2.6 18:52:04 10° S 18:56:22 53° WSW 19:00:39 10° NNW
FALCON 9 DEB 3.1 18:53:10 10° SW 18:56:22 77° NW 18:59:35 10° NNE
Hubble Space Telescope 3.1 18:54:41 10° NNW 18:56:27 12° N 18:58:13 10° NNE
Aureole 1 Rocket 3.4 18:54:20 10° NNE 18:56:55 24° ENE 18:59:50 10° SE
Aureole 3 Rocket 3.8 18:54:57 10° SE 18:56:58 16° E 18:59:02 10° NE
Longmarch 3A Rocket 3.1 18:56:21 10° NNW 18:57:56 16° NNE 19:00:28 11° ENE
USA 281 3.5 18:52:59 10° SSE 18:59:30 74° WSW 19:06:03 10° NNW
SMAP 4.2 18:55:57 10° S 19:00:26 48° W 19:04:54 10° NNW
GENESIS II 4.5 18:56:29 10° SSW 19:00:27 75° WNW 19:04:26 10° NNE
IRS-1C Rocket 4.4 18:55:40 10° SE 19:00:34 41° ENE 19:05:29 10° N
GPS 2-14 Rocket1 3.3 18:57:16 10° W 19:01:15 49° N 19:04:48 12° ENE
FengYun 1-2 T 4.3 18:56:10 10° SSE 19:01:49 83° ENE 19:07:28 10° N
CZ-3B R/B 3.6 18:54:47 10° WSW 19:01:52 50° SSE 19:04:39 14° E
Cosmos 1110 Rocket 4.3 18:57:46 10° SSW 19:03:03 76° WNW 19:08:19 10° N
Cosmos 1703 3.3 19:02:06 10° N 19:05:57 53° E 19:09:47 10° SSE
Cosmos 1302 Rocket 4.4 19:01:45 10° S 19:06:37 42° E 19:11:31 10° NNE
Aureole 2 4.3 19:03:24 10° NNW 19:06:43 79° W 19:09:43 10° S
BREEZE-M DEB (TANK) 4.2 19:01:08 10° SW 19:07:50 42° WNW 19:10:24 10° NNE
MOS 1 Rocket 3.8 19:03:59 10° NNE 19:08:26 39° E 19:13:08 10° S
Cosmos 1140 Rocket 4.4 19:04:22 10° NNW 19:09:21 52° WSW 19:14:22 10° S
Cosmos 1954 Rocket 3.9 19:04:28 10° N 19:09:41 77° ENE 19:14:55 10° SSE
H-2A R/B 3.4 19:15:51 17° ENE 19:16:15 17° ENE 19:19:36 10° NNE
Okean-O 3.2 19:13:10 10° SE 19:17:11 35° ENE 19:21:13 10° N
X-37B 0.7 19:18:49 10° NW 19:21:55 54° NE 19:23:20 27° ESE
ATLAS CENTAUR R/B 3.9 19:22:22 10° WNW 19:25:31 23° WSW 19:28:49 10° SSW
Cosmos 1300 3.1 19:22:06 10° SSW 19:25:51 64° W 19:29:37 10° N
YAOGAN 1 3.1 19:24:05 10° SE 19:28:01 35° ENE 19:31:57 10° N
CZ-4 R/B 4.3 19:24:22 10° SSE 19:28:29 72° ENE 19:32:36 10° N
Aureole 3 3.4 19:23:55 10° S 19:28:48 79° E 19:32:37 10° N
Cosmos 1697 Rocket 3.7 19:24:45 10° SSE 19:29:02 23° ESE 19:29:17 23° E
Cosmos 1328 3.9 19:29:33 10° N 19:33:28 75° W 19:37:23 10° S
Cosmos 1400 Rocket 2.7 19:29:25 10° S 19:33:31 76° E 19:37:37 10° N
Cosmos 1656 3.6 19:29:00 10° S 19:34:20 61° ESE 19:39:46 10° NNE
CZ-2C R/B 3.4 19:33:49 10° SSE 19:39:20 51° ENE 19:44:57 10° N
Atlas Centaur 2 3.1 19:31:45 10° WSW 19:40:20 79° NNW 19:45:26 26° ENE
IRS-P2 Rocket 4.4 19:35:27 10° SSE 19:40:40 76° ENE 19:45:51 10° N
Cosmos 1850 Rocket 4.1 19:35:54 10° N 19:41:03 51° ENE 19:46:12 10° SSE
CZ-2C R/B 3.2 19:40:25 31° ENE 19:41:41 35° E 19:46:32 10° SSE
Meteor 2-10 Rocket 3.9 19:38:01 10° SSE 19:43:22 45° E 19:46:36 22° NNE
Cosmos 1825 Rocket 3.4 19:40:05 10° N 19:44:31 88° E 19:48:55 10° S
NOSS 3-1 (C) 4.2 19:37:35 10° NNW 19:46:09 82° ENE 19:55:13 10° SSE
GPS 2-12 Rocket1 3.6 19:42:18 10° WNW 19:46:33 44° N 19:47:29 38° NNE
NOAA 15 4.5 19:43:01 10° SSE 19:48:15 69° ENE 19:53:31 10° N
GPS 2-04 Rocket1 3.5 19:46:47 10° SSW 19:50:26 38° SSE 19:50:26 38° SSE
Helios 1A Rocket 3.5 19:47:39 10° S 19:51:43 58° W 19:55:47 10° NNW
Cosmos 1992 Rocket 4.3 19:49:32 10° S 19:54:02 44° ESE 19:54:02 44° ESE
Nadezhda 2 Rocket 4.4 19:48:54 10° N 19:55:17 72° E 20:01:41 10° S
CSL-04 Debris 4.1 19:52:05 10° SSE 19:57:19 55° ENE 20:02:36 10° N
Ariane H10+ 4.2 19:52:32 10° WSW 19:58:09 39° S 20:06:41 22° ESE
Meteor 2-1 Rocket 4.1 19:56:13 10° S 20:01:44 61° E 20:02:47 52° NE
Cosmos 1244 Rocket 4.3 19:57:44 10° N 20:03:57 75° E 20:10:12 10° S
Milstar 3 3.9 20:01:39 10° WNW 20:07:31 31° N 20:09:50 26° NNE
H-10 deb 4.0 19:33:08 10° W 20:08:50 50° S 20:11:22 35° SE
EO 1 Delta rocket 4.5 20:12:17 42° S 20:12:17 42° S 20:15:24 10° S
Meteor 2-15 Rocket 4.3 20:07:21 10° S 20:13:29 81° E 20:17:10 26° N
SWIFT 3.6 20:09:54 10° WNW 20:12:51 33° NNW 20:12:51 33° NNW
S3M 4.1 20:15:16 10° S 20:21:21 72° W 20:27:26 10° N
Cosmos 2369 4.2 20:18:29 10° S 20:22:35 49° S 20:22:35 49° S
CZ-4 R/B 3.8 20:25:56 10° SSW 20:29:04 21° W 20:32:08 10° NW
Milstar 3 Cent rocket 4.0 20:29:19 10° WNW 20:40:36 40° SW 20:43:24 30° S
Delta 2 Rocket 4.5 20:37:16 10° WSW 20:44:20 64° SSW 20:44:20 64° SSW
H-2A R/B 3.7 20:56:29 30° WNW 20:56:29 30° WNW 21:00:03 10° NW
Atlas Centaur 2 4.4 21:23:13 10° W 21:28:03 29° NW 21:28:03 29° NW
